Time,TemperatureF,DewpointF,PressureIn,WindDirection,WindDirectionDegrees,WindSpeedMPH,WindSpeedGustMPH,Humidity,HourlyPrecipIn,Conditions,Clouds,dailyrainin,SoftwareType,DateUTC
2013-02-10 00:01:00,28.0,18.0,-100.00,ENE,63,1.0,8.0,64,0.00,,,-99.99,,2013-02-10 05:01:00,
2013-02-10 00:11:00,28.0,18.0,-100.00,ENE,64,2.0,2.0,64,0.00,,,-99.99,,2013-02-10 05:11:00,
2013-02-10 00:23:00,26.0,14.0,-100.00,ENE,73,2.0,2.0,59,0.00,,,-99.99,,2013-02-10 05:23:00,
2013-02-10 00:32:00,27.0,16.0,-100.00,ENE,64,2.0,2.0,59,0.00,,,-99.99,,2013-02-10 05:32:00,
2013-02-10 00:42:00,25.0,14.0,-100.00,ENE,63,2.0,2.0,59,0.00,,,-99.99,,2013-02-10 05:42:00,
2013-02-10 00:52:00,28.0,18.0,-100.00,East,81,2.0,2.0,63,0.00,,,-99.99,,2013-02-10 05:52:00,
2013-02-10 01:02:00,28.0,18.0,-100.00,ENE,69,2.0,2.0,62,0.00,,,-99.99,,2013-02-10 06:02:00,
2013-02-10 01:11:00,26.0,16.0,-100.00,ENE,72,2.0,2.0,63,0.00,,,-99.99,,2013-02-10 06:11:00,
2013-02-10 01:21:00,23.0,14.0,-100.00,East,81,2.0,2.0,64,0.00,,,-99.99,,2013-02-10 06:21:00,
2013-02-10 01:32:00,26.0,18.0,-100.00,ENE,63,3.0,4.0,67,0.00,,,-99.99,,2013-02-10 06:32:00,
2013-02-10 01:42:00,23.0,16.0,-100.00,ENE,72,4.0,4.0,68,0.00,,,-99.99,,2013-02-10 06:42:00,
2013-02-10 01:51:00,24.0,16.0,-100.00,ENE,63,4.0,4.0,68,0.00,,,-99.99,,2013-02-10 06:51:00,
2013-02-10 02:01:00,24.0,16.0,-100.00,East,81,4.0,4.0,68,0.00,,,-99.99,,2013-02-10 07:01:00,
2013-02-10 02:11:00,24.0,16.0,-100.00,ENE,63,4.0,4.0,66,0.00,,,-99.99,,2013-02-10 07:11:00,
2013-02-10 02:21:00,23.0,14.0,-100.00,ENE,72,4.0,4.0,67,0.00,,,-99.99,,2013-02-10 07:21:00,
2013-02-10 02:32:00,23.0,16.0,-100.00,ENE,72,4.0,4.0,67,0.00,,,-99.99,,2013-02-10 07:32:00,
2013-02-10 02:42:00,25.0,16.0,-100.00,ENE,63,4.0,4.0,67,0.00,,,-99.99,,2013-02-10 07:42:00,
2013-02-10 02:51:00,25.0,16.0,-100.00,ENE,72,4.0,4.0,64,0.00,,,-99.99,,2013-02-10 07:51:00,
2013-02-10 03:01:00,26.0,16.0,-100.00,ENE,72,4.0,4.0,62,0.00,,,-99.99,,2013-02-10 08:01:00,
2013-02-10 03:11:00,26.0,16.0,-100.00,ENE,72,4.0,4.0,62,0.00,,,-99.99,,2013-02-10 08:11:00,
2013-02-10 03:21:00,26.0,16.0,-100.00,East,81,2.0,4.0,62,0.00,,,-99.99,,2013-02-10 08:21:00,
2013-02-10 03:32:00,26.0,16.0,-100.00,ENE,63,4.0,4.0,60,0.00,,,-99.99,,2013-02-10 08:32:00,
2013-02-10 03:43:00,26.0,16.0,-100.00,ENE,67,5.0,6.0,60,0.00,,,-99.99,,2013-02-10 08:43:00,
2013-02-10 03:52:00,26.0,16.0,-100.00,ENE,72,5.0,6.0,62,0.00,,,-99.99,,2013-02-10 08:52:00,
2013-02-10 04:02:00,26.0,16.0,-100.00,East,81,4.0,6.0,62,0.00,,,-99.99,,2013-02-10 09:02:00,
2013-02-10 04:11:00,26.0,16.0,-100.00,ENE,72,5.0,6.0,62,0.00,,,-99.99,,2013-02-10 09:11:00,
2013-02-10 04:21:00,26.0,16.0,-100.00,ENE,67,4.0,6.0,62,0.00,,,-99.99,,2013-02-10 09:21:00,
2013-02-10 04:32:00,26.0,14.0,-100.00,ENE,63,4.0,6.0,60,0.00,,,-99.99,,2013-02-10 09:32:00,
2013-02-10 04:42:00,26.0,16.0,-100.00,ENE,72,4.0,6.0,62,0.00,,,-99.99,,2013-02-10 09:42:00,
2013-02-10 04:51:00,26.0,16.0,-100.00,East,81,4.0,6.0,60,0.00,,,-99.99,,2013-02-10 09:51:00,
2013-02-10 05:01:00,26.0,16.0,-100.00,ENE,67,4.0,6.0,60,0.00,,,-99.99,,2013-02-10 10:01:00,
2013-02-10 05:11:00,28.0,18.0,-100.00,East,79,5.0,6.0,60,0.00,,,-99.99,,2013-02-10 10:11:00,
2013-02-10 05:21:00,26.0,16.0,-100.00,ENE,63,4.0,6.0,60,0.00,,,-99.99,,2013-02-10 10:21:00,
2013-02-10 05:32:00,27.0,16.0,-100.00,ENE,72,3.0,6.0,59,0.00,,,-99.99,,2013-02-10 10:32:00,
2013-02-10 05:42:00,29.0,18.0,-100.00,ENE,63,2.0,6.0,60,0.00,,,-99.99,,2013-02-10 10:42:00,
2013-02-10 05:51:00,29.0,18.0,-100.00,ENE,63,2.0,6.0,60,0.00,,,-99.99,,2013-02-10 10:51:00,
2013-02-10 06:01:00,29.0,18.0,-100.00,East,81,2.0,6.0,60,0.00,,,-99.99,,2013-02-10 11:01:00,
2013-02-10 06:11:00,29.0,19.0,-100.00,ENE,62,2.0,6.0,62,0.00,,,-99.99,,2013-02-10 11:11:00,
2013-02-10 06:22:00,29.0,18.0,-100.00,ENE,72,4.0,6.0,60,0.00,,,-99.99,,2013-02-10 11:22:00,
2013-02-10 06:32:00,29.0,19.0,-100.00,ENE,72,4.0,6.0,62,0.00,,,-99.99,,2013-02-10 11:32:00,
2013-02-10 06:42:00,29.0,19.0,-100.00,ENE,72,2.0,6.0,62,0.00,,,-99.99,,2013-02-10 11:42:00,
2013-02-10 06:52:00,27.0,16.0,-100.00,ENE,72,3.0,6.0,60,0.00,,,-99.99,,2013-02-10 11:52:00,
2013-02-10 07:02:00,29.0,19.0,-100.00,ENE,62,4.0,6.0,63,0.00,,,-99.99,,2013-02-10 12:02:00,
2013-02-10 07:12:00,29.0,19.0,-100.00,ENE,72,5.0,6.0,62,0.00,,,-99.99,,2013-02-10 12:12:00,
2013-02-10 07:22:00,29.0,19.0,-100.00,East,79,5.0,6.0,63,0.00,,,-99.99,,2013-02-10 12:22:00,
2013-02-10 07:32:00,30.0,19.0,-100.00,East,79,6.0,8.0,60,0.00,,,-99.99,,2013-02-10 12:32:00,
2013-02-10 07:42:00,29.0,18.0,-100.00,East,80,6.0,8.0,60,0.00,,,-99.99,,2013-02-10 12:42:00,
2013-02-10 07:52:00,29.0,18.0,-100.00,ENE,72,5.0,8.0,60,0.00,,,-99.99,,2013-02-10 12:52:00,
2013-02-10 08:02:00,30.0,18.0,-100.00,ENE,72,3.0,8.0,58,0.00,,,-99.99,,2013-02-10 13:02:00,
2013-02-10 08:12:00,28.0,16.0,-100.00,ENE,66,4.0,8.0,56,0.00,,,-99.99,,2013-02-10 13:12:00,
2013-02-10 08:21:00,28.0,16.0,-100.00,ENE,63,4.0,8.0,56,0.00,,,-99.99,,2013-02-10 13:21:00,
2013-02-10 08:31:00,31.0,18.0,-100.00,ENE,74,5.0,8.0,56,0.00,,,-99.99,,2013-02-10 13:31:00,
2013-02-10 08:41:00,31.0,18.0,-100.00,ENE,76,4.0,8.0,56,0.00,,,-99.99,,2013-02-10 13:41:00,
2013-02-10 08:51:00,31.0,18.0,-100.00,ENE,62,4.0,8.0,56,0.00,,,-99.99,,2013-02-10 13:51:00,
2013-02-10 09:02:00,32.0,19.0,-100.00,East,81,3.0,8.0,55,0.00,,,-99.99,,2013-02-10 14:02:00,
2013-02-10 09:11:00,32.0,18.0,-100.00,ENE,70,4.0,8.0,54,0.00,,,-99.99,,2013-02-10 14:11:00,
2013-02-10 09:22:00,32.0,19.0,-100.00,ENE,70,5.0,8.0,55,0.00,,,-99.99,,2013-02-10 14:22:00,
2013-02-10 09:32:00,28.0,14.0,-100.00,ENE,63,6.0,8.0,54,0.00,,,-99.99,,2013-02-10 14:32:00,
2013-02-10 09:42:00,29.0,16.0,-100.00,ENE,62,5.0,8.0,54,0.00,,,-99.99,,2013-02-10 14:42:00,
2013-02-10 09:52:00,30.0,16.0,-100.00,East,81,6.0,8.0,54,0.00,,,-99.99,,2013-02-10 14:52:00,
2013-02-10 10:02:00,30.0,16.0,-100.00,ENE,63,4.0,8.0,53,0.00,,,-99.99,,2013-02-10 15:02:00,
2013-02-10 10:11:00,31.0,18.0,-100.00,ENE,70,5.0,8.0,54,0.00,,,-99.99,,2013-02-10 15:11:00,
2013-02-10 10:22:00,31.0,18.0,-100.00,ENE,72,5.0,8.0,54,0.00,,,-99.99,,2013-02-10 15:22:00,
2013-02-10 10:32:00,31.0,18.0,-100.00,ENE,70,6.0,8.0,53,0.00,,,-99.99,,2013-02-10 15:32:00,
2013-02-10 10:42:00,32.0,18.0,-100.00,East,80,4.0,8.0,53,0.00,,,-99.99,,2013-02-10 15:42:00,
2013-02-10 10:52:00,33.0,18.0,-100.00,East,81,2.0,8.0,49,0.00,,,-99.99,,2013-02-10 15:52:00,
2013-02-10 11:02:00,34.0,18.0,-100.00,ENE,63,2.0,8.0,49,0.00,,,-99.99,,2013-02-10 16:02:00,
2013-02-10 11:12:00,34.0,18.0,-100.00,ENE,69,2.0,8.0,47,0.00,,,-99.99,,2013-02-10 16:12:00,
2013-02-10 11:22:00,35.0,18.0,-100.00,East,81,1.0,8.0,46,0.00,,,-99.99,,2013-02-10 16:22:00,
2013-02-10 11:32:00,34.0,16.0,-100.00,ENE,70,4.0,8.0,47,0.00,,,-99.99,,2013-02-10 16:32:00,
2013-02-10 11:42:00,34.0,18.0,-100.00,East,81,3.0,8.0,47,0.00,,,-99.99,,2013-02-10 16:42:00,
2013-02-10 11:52:00,34.0,19.0,-100.00,ENE,72,6.0,8.0,53,0.00,,,-99.99,,2013-02-10 16:52:00,
2013-02-10 12:02:00,35.0,19.0,-100.00,ENE,70,2.0,8.0,50,0.00,,,-99.99,,2013-02-10 17:02:00,
2013-02-10 12:12:00,36.0,18.0,-100.00,ENE,62,0.0,8.0,46,0.00,,,-99.99,,2013-02-10 17:12:00,
2013-02-10 12:22:00,37.0,18.0,-100.00,ENE,72,1.0,8.0,42,0.00,,,-99.99,,2013-02-10 17:22:00,
2013-02-10 12:32:00,39.0,19.0,-100.00,East,81,1.0,8.0,42,0.00,,,-99.99,,2013-02-10 17:32:00,
2013-02-10 12:42:00,41.0,18.0,-100.00,ENE,72,1.0,8.0,38,0.00,,,-99.99,,2013-02-10 17:42:00,
2013-02-10 12:52:00,41.0,18.0,-100.00,ENE,66,2.0,8.0,38,0.00,,,-99.99,,2013-02-10 17:52:00,
2013-02-10 13:02:00,41.0,19.0,-100.00,East,81,2.0,8.0,38,0.00,,,-99.99,,2013-02-10 18:02:00,
2013-02-10 13:12:00,42.0,19.0,-100.00,ENE,62,2.0,8.0,38,0.00,,,-99.99,,2013-02-10 18:12:00,
2013-02-10 13:22:00,43.0,19.0,-100.00,ENE,70,2.0,8.0,37,0.00,,,-99.99,,2013-02-10 18:22:00,
2013-02-10 13:32:00,43.0,19.0,-100.00,ENE,70,3.0,8.0,37,0.00,,,-99.99,,2013-02-10 18:32:00,
2013-02-10 13:42:00,42.0,19.0,-100.00,ENE,62,4.0,8.0,38,0.00,,,-99.99,,2013-02-10 18:42:00,
2013-02-10 13:52:00,43.0,19.0,-100.00,East,81,3.0,8.0,38,0.00,,,-99.99,,2013-02-10 18:52:00,
2013-02-10 14:02:00,43.0,19.0,-100.00,ENE,67,2.0,8.0,37,0.00,,,-99.99,,2013-02-10 19:02:00,
2013-02-10 14:12:00,44.0,21.0,-100.00,East,81,1.0,8.0,37,0.00,,,-99.99,,2013-02-10 19:12:00,
2013-02-10 14:22:00,44.0,19.0,-100.00,ENE,70,3.0,8.0,37,0.00,,,-99.99,,2013-02-10 19:22:00,
2013-02-10 14:32:00,44.0,21.0,-100.00,ENE,70,2.0,8.0,37,0.00,,,-99.99,,2013-02-10 19:32:00,
2013-02-10 14:42:00,45.0,21.0,-100.00,ENE,62,3.0,8.0,37,0.00,,,-99.99,,2013-02-10 19:42:00,
2013-02-10 14:52:00,45.0,19.0,-100.00,East,81,3.0,8.0,34,0.00,,,-99.99,,2013-02-10 19:52:00,
2013-02-10 15:02:00,45.0,19.0,-100.00,ENE,73,4.0,8.0,33,0.00,,,-99.99,,2013-02-10 20:02:00,
2013-02-10 15:11:00,45.0,19.0,-100.00,ENE,64,5.0,8.0,34,0.00,,,-99.99,,2013-02-10 20:11:00,
2013-02-10 15:22:00,46.0,19.0,-100.00,ENE,70,3.0,8.0,33,0.00,,,-99.99,,2013-02-10 20:22:00,
2013-02-10 15:32:00,47.0,19.0,-100.00,ENE,74,3.0,8.0,32,0.00,,,-99.99,,2013-02-10 20:32:00,
2013-02-10 15:42:00,47.0,19.0,-100.00,ENE,62,2.0,8.0,33,0.00,,,-99.99,,2013-02-10 20:42:00,
2013-02-10 15:52:00,47.0,19.0,-100.00,East,79,2.0,8.0,32,0.00,,,-99.99,,2013-02-10 20:52:00,
2013-02-10 16:02:00,47.0,19.0,-100.00,East,81,1.0,8.0,32,0.00,,,-99.99,,2013-02-10 21:02:00,
2013-02-10 16:11:00,47.0,19.0,-100.00,ENE,69,1.0,8.0,33,0.00,,,-99.99,,2013-02-10 21:11:00,
2013-02-10 16:22:00,47.0,19.0,-100.00,East,79,2.0,8.0,33,0.00,,,-99.99,,2013-02-10 21:22:00,
2013-02-10 16:32:00,47.0,19.0,-100.00,ENE,70,3.0,8.0,33,0.00,,,-99.99,,2013-02-10 21:32:00,
2013-02-10 16:42:00,47.0,19.0,-100.00,East,81,2.0,8.0,32,0.00,,,-99.99,,2013-02-10 21:42:00,
2013-02-10 16:52:00,48.0,19.0,-100.00,ENE,62,2.0,8.0,32,0.00,,,-99.99,,2013-02-10 21:52:00,
2013-02-10 17:02:00,47.0,21.0,-100.00,ENE,60,2.0,8.0,33,0.00,,,-99.99,,2013-02-10 22:02:00,
2013-02-10 17:12:00,47.0,19.0,-100.00,ENE,72,1.0,8.0,33,0.00,,,-99.99,,2013-02-10 22:12:00,
2013-02-10 17:22:00,47.0,19.0,-100.00,ENE,63,1.0,8.0,33,0.00,,,-99.99,,2013-02-10 22:22:00,
2013-02-10 17:32:00,47.0,21.0,-100.00,East,81,2.0,8.0,33,0.00,,,-99.99,,2013-02-10 22:32:00,
2013-02-10 17:42:00,47.0,21.0,-100.00,East,80,2.0,8.0,33,0.00,,,-99.99,,2013-02-10 22:42:00,
2013-02-10 17:52:00,47.0,21.0,-100.00,East,81,1.0,8.0,33,0.00,,,-99.99,,2013-02-10 22:52:00,
2013-02-10 18:02:00,47.0,21.0,-100.00,ENE,72,0.0,8.0,33,0.00,,,-99.99,,2013-02-10 23:02:00,
2013-02-10 18:12:00,47.0,21.0,-100.00,ENE,69,2.0,8.0,33,0.00,,,-99.99,,2013-02-10 23:12:00,
2013-02-10 18:22:00,47.0,21.0,-100.00,East,81,1.0,8.0,33,0.00,,,-99.99,,2013-02-10 23:22:00,
2013-02-10 18:32:00,47.0,21.0,-100.00,ENE,73,2.0,8.0,34,0.00,,,-99.99,,2013-02-10 23:32:00,
2013-02-10 18:42:00,47.0,21.0,-100.00,ENE,62,4.0,8.0,33,0.00,,,-99.99,,2013-02-10 23:42:00,
2013-02-10 18:52:00,48.0,21.0,-100.00,East,81,2.0,8.0,33,0.00,,,-99.99,,2013-02-10 23:52:00,
2013-02-10 19:02:00,47.0,21.0,-100.00,ENE,60,2.0,8.0,33,0.00,,,-99.99,,2013-02-11 00:02:00,
2013-02-10 19:11:00,48.0,19.0,-100.00,ENE,62,2.0,8.0,32,0.00,,,-99.99,,2013-02-11 00:11:00,
2013-02-10 19:22:00,48.0,21.0,-100.00,ENE,62,1.0,8.0,32,0.00,,,-99.99,,2013-02-11 00:22:00,
2013-02-10 19:32:00,49.0,21.0,-100.00,ENE,72,2.0,8.0,32,0.00,,,-99.99,,2013-02-11 00:32:00,
2013-02-10 19:42:00,48.0,21.0,-100.00,ENE,63,1.0,8.0,32,0.00,,,-99.99,,2013-02-11 00:42:00,
2013-02-10 19:52:00,49.0,21.0,-100.00,ENE,60,1.0,8.0,32,4.53,,,-99.99,,2013-02-11 00:52:00,
2013-02-10 20:01:00,49.0,25.0,-100.00,ENE,72,1.0,8.0,37,9.06,,,-99.99,,2013-02-11 01:01:00,
2013-02-10 20:11:00,48.0,27.0,-100.00,East,81,1.0,8.0,42,4.53,,,-99.99,,2013-02-11 01:11:00,
2013-02-10 20:21:00,50.0,32.0,-100.00,ENE,72,1.0,8.0,49,5.12,,,-99.99,,2013-02-11 01:21:00,
2013-02-10 20:32:00,49.0,32.0,-100.00,ENE,62,2.0,8.0,55,11.89,,,-99.99,,2013-02-11 01:32:00,
2013-02-10 20:42:00,49.0,36.0,-100.00,ENE,72,1.0,8.0,63,0.55,,,-99.99,,2013-02-11 01:42:00,
2013-02-10 20:52:00,44.0,34.0,-100.00,ENE,62,1.0,8.0,68,0.00,,,-99.99,,2013-02-11 01:52:00,
2013-02-10 21:01:00,44.0,34.0,-100.00,ENE,66,2.0,8.0,69,0.00,,,-99.99,,2013-02-11 02:01:00,
2013-02-10 21:11:00,44.0,36.0,-100.00,East,80,4.0,8.0,73,0.00,,,-99.99,,2013-02-11 02:11:00,
2013-02-10 21:21:00,43.0,36.0,-100.00,ENE,72,4.0,8.0,77,0.00,,,-99.99,,2013-02-11 02:21:00,
2013-02-10 21:32:00,43.0,36.0,-100.00,ENE,69,5.0,8.0,77,0.00,,,-99.99,,2013-02-11 02:32:00,
2013-02-10 21:42:00,45.0,37.0,-100.00,East,81,6.0,14.0,78,0.00,,,-99.99,,2013-02-11 02:42:00,
2013-02-10 21:52:00,45.0,37.0,-100.00,ENE,72,4.0,14.0,77,0.00,,,-99.99,,2013-02-11 02:52:00,
2013-02-10 22:02:00,46.0,37.0,-100.00,East,81,2.0,14.0,76,0.00,,,-99.99,,2013-02-11 03:02:00,
2013-02-10 22:11:00,46.0,37.0,-100.00,ENE,70,4.0,14.0,75,0.00,,,-99.99,,2013-02-11 03:11:00,
2013-02-10 22:21:00,46.0,37.0,-100.00,ENE,63,4.0,14.0,73,0.00,,,-99.99,,2013-02-11 03:21:00,
2013-02-10 22:32:00,47.0,37.0,-100.00,ENE,72,6.0,14.0,73,0.00,,,-99.99,,2013-02-11 03:32:00,
2013-02-10 22:42:00,46.0,37.0,-100.00,ENE,70,6.0,14.0,73,0.00,,,-99.99,,2013-02-11 03:42:00,
2013-02-10 22:52:00,47.0,37.0,-100.00,ENE,73,5.0,14.0,75,0.00,,,-99.99,,2013-02-11 03:52:00,
2013-02-10 23:02:00,46.0,37.0,-100.00,East,81,5.0,14.0,76,0.00,,,-99.99,,2013-02-11 04:02:00,
2013-02-10 23:11:00,47.0,39.0,-100.00,East,81,4.0,14.0,77,0.00,,,-99.99,,2013-02-11 04:11:00,
2013-02-10 23:22:00,46.0,39.0,-100.00,ENE,63,4.0,14.0,78,0.00,,,-99.99,,2013-02-11 04:22:00,
2013-02-10 23:32:00,46.0,39.0,-100.00,ENE,72,4.0,14.0,80,0.00,,,-99.99,,2013-02-11 04:32:00,
2013-02-10 23:42:00,46.0,39.0,-100.00,East,83,5.0,14.0,80,0.00,,,-99.99,,2013-02-11 04:42:00,
2013-02-10 23:52:00,46.0,39.0,-100.00,East,83,4.0,14.0,81,0.00,,,-99.99,,2013-02-11 04:52:00,